Capitol Logistics 785


VVTS
Tan Son Nhat International Airport
Ho Chi Minh City, VN
RKSI
Incheon International Airport
Seoul, KR

Activity Log

Date Flight Route Aircraft Duration
No Flights Yet

Route Details

Aircraft Information
Primary: Boeing 767-300BDSF
Backup: Not Available
Route Data
Distance: 2216nm
Sched. Duration: 4h 29m
Avg. Duration: 0h 00m (-430m)
Times Flown: 0
Recm'd Route: TANOS1B PTH N500 AGSAM L625 ABVAR M646 POTIB Q11 DRAKE Q11 WP900 L4 LIPLO Y741 BOLUT B576 OLMEN OLMEN1P
Planned Altitude: 33,000ft
Origin Wx: VVTS 032330Z 25007KT 7000 -RA SCT015 SCT050 26/25 Q1010 NOSIG
Dest. Wx: RKSI 040000Z 29004KT 260V320 9999 FEW018 BKN100 22/17 Q1008 NOSIG
Notes:

Financial History
Total Freight: 0lbs
Average Load: 0lbs/flt
Fuel Used: 0lbs
Avg. Fuel Used: 0lbs/flt
Fuel Expense: $0
Avg. Fuel Expense: $0
Avg. Fuel Cost: $0/lbs
Total Gross Income: $0
Pilot Pay: $0
Total Expenses: $0
Total Revenue: $0
Average Revenue: $0